TimeEST,TemperatureF,Dew PointF,Humidity,Sea Level PressureIn,VisibilityMPH,Wind Direction,Wind SpeedMPH,Gust SpeedMPH,PrecipitationIn,Events,Conditions,WindDirDegrees,DateUTC
12:53 AM,64.9,63.0,93,29.80,10.0,SSW,9.2,-,N/A,,Mostly Cloudy,210,2014-02-13 05:53:00
1:53 AM,68.0,64.9,90,29.79,10.0,SSW,10.4,-,N/A,,Mostly Cloudy,210,2014-02-13 06:53:00
2:14 AM,68.0,64.9,90,29.78,10.0,SSW,12.7,-,N/A,,Mostly Cloudy,210,2014-02-13 07:14:00
2:53 AM,70.0,66.0,87,29.76,8.0,SW,15.0,-,0.01,Rain,Light Rain,220,2014-02-13 07:53:00
3:16 AM,68.0,64.9,90,29.78,10.0,West,16.1,-,0.04,,Overcast,280,2014-02-13 08:16:00
3:26 AM,68.0,64.9,90,29.78,10.0,WNW,15.0,-,0.04,,Overcast,290,2014-02-13 08:26:00
3:53 AM,66.9,64.0,90,29.78,10.0,WNW,15.0,-,0.04,,Overcast,290,2014-02-13 08:53:00
4:53 AM,64.9,61.0,87,29.79,10.0,WNW,16.1,-,N/A,,Overcast,300,2014-02-13 09:53:00
5:24 AM,64.0,60.1,87,29.80,10.0,WNW,20.7,26.5,N/A,,Overcast,290,2014-02-13 10:24:00
5:53 AM,63.0,59.0,87,29.83,10.0,WNW,19.6,27.6,N/A,,Overcast,300,2014-02-13 10:53:00
6:05 AM,63.0,57.9,84,29.83,10.0,WNW,16.1,21.9,N/A,,Overcast,290,2014-02-13 11:05:00
6:28 AM,64.0,55.9,75,29.84,10.0,WNW,16.1,-,N/A,,Overcast,290,2014-02-13 11:28:00
6:53 AM,64.0,55.0,73,29.85,10.0,WNW,16.1,26.5,N/A,,Overcast,300,2014-02-13 11:53:00
7:53 AM,64.0,55.0,73,29.87,10.0,WNW,12.7,-,N/A,,Overcast,290,2014-02-13 12:53:00
8:53 AM,64.0,55.0,73,29.90,10.0,WNW,15.0,-,N/A,,Mostly Cloudy,300,2014-02-13 13:53:00
9:13 AM,64.0,55.0,73,29.90,10.0,NW,19.6,28.8,N/A,,Mostly Cloudy,310,2014-02-13 14:13:00
9:25 AM,64.9,55.0,70,29.90,10.0,NW,20.7,25.3,N/A,,Scattered Clouds,310,2014-02-13 14:25:00
9:53 AM,66.0,55.0,68,29.92,10.0,NW,19.6,-,N/A,,Partly Cloudy,310,2014-02-13 14:53:00
10:53 AM,66.9,54.0,63,29.92,10.0,NW,15.0,-,N/A,,Scattered Clouds,320,2014-02-13 15:53:00
11:53 AM,64.9,52.0,63,29.91,10.0,NW,18.4,-,N/A,,Overcast,320,2014-02-13 16:53:00
12:53 PM,68.0,51.1,55,29.90,10.0,WNW,24.2,32.2,N/A,,Partly Cloudy,300,2014-02-13 17:53:00
1:53 PM,68.0,48.9,50,29.89,10.0,WNW,20.7,27.6,N/A,,Partly Cloudy,300,2014-02-13 18:53:00
2:53 PM,66.9,48.0,51,29.89,10.0,NW,19.6,31.1,N/A,,Mostly Cloudy,320,2014-02-13 19:53:00
3:53 PM,66.0,46.9,50,29.89,10.0,WNW,16.1,26.5,N/A,,Partly Cloudy,290,2014-02-13 20:53:00
4:53 PM,63.0,46.9,56,29.91,10.0,NW,19.6,25.3,N/A,,Partly Cloudy,310,2014-02-13 21:53:00
5:53 PM,61.0,46.9,60,29.93,10.0,WNW,16.1,-,N/A,,Clear,300,2014-02-13 22:53:00
6:53 PM,57.0,48.9,74,29.95,10.0,NNW,9.2,-,N/A,,Clear,330,2014-02-13 23:53:00
7:48 PM,55.4,48.2,77,29.98,10.0,NNW,8.1,-,N/A,,Mostly Cloudy,340,2014-02-14 00:48:00
7:53 PM,55.9,48.0,75,29.99,10.0,NNW,8.1,-,N/A,,Mostly Cloudy,340,2014-02-14 00:53:00
8:05 PM,55.0,48.0,77,29.99,10.0,North,8.1,-,N/A,,Scattered Clouds,350,2014-02-14 01:05:00
8:53 PM,55.0,48.9,80,30.01,10.0,NNW,8.1,-,N/A,,Clear,330,2014-02-14 01:53:00
9:29 PM,55.0,48.0,77,30.02,10.0,NNW,8.1,-,N/A,,Mostly Cloudy,330,2014-02-14 02:29:00
9:53 PM,54.0,48.0,80,30.02,10.0,NNW,9.2,-,N/A,,Mostly Cloudy,330,2014-02-14 02:53:00
10:08 PM,54.0,48.0,80,30.02,10.0,NW,9.2,-,N/A,,Scattered Clouds,320,2014-02-14 03:08:00
10:53 PM,53.1,48.0,83,30.02,10.0,NW,8.1,-,N/A,,Clear,320,2014-02-14 03:53:00
11:53 PM,51.1,46.9,86,30.02,10.0,NNW,4.6,-,N/A,,Clear,340,2014-02-14 04:53:00